Sherbrooke, Quebec

1:25 PM EST on January 16, 2018 (GMT -0500)
Sherbrooke

Weather History for CYSC - March, 2013

Change the Weather History Date:

Monday, March 11, 2013

  Actual Average Record
Temperature  
Mean Temperature 44 °F -  
Max Temperature 55 °F 41 °F 55 °F (2013)
Min Temperature 33 °F 19 °F -11 °F (2017)
Degree Days  
Heating Degree Days 21    
Moisture  
Dew Point 25 °F    
Average Humidity 43    
Maximum Humidity 81    
Minimum Humidity 19    
Precipitation  
Precipitation 0.00 in 0.10 in - ()
Sea Level Pressure  
Sea Level Pressure 30.04 in    
Wind  
Wind Speed 4 mph ()    
Max Wind Speed 9 mph    
Max Gust Speed -    
Visibility 9.3 miles    
Events      
Averages and records for this station are not official NWS values.
T = Trace of Precipitation, MM = Missing Value Source: Averaged Metar Reports

Daily Weather History Graph

Daily Weather History Graph

Search for Another Location

Airport or City:

Trip Planner

Search our weather history database for the weather conditions in past years. The results will help you decide how hot, cold, wet, or windy it might be!

Date:

Astronomy

Mar. 11, 2013 Rise Set
Actual Time 7:06 AM EDT 6:47 PM EDT
Civil Twilight 6:36 AM EDT 7:17 PM EDT
Nautical Twilight 6:02 AM EDT 7:51 PM EDT
Astronomical Twilight 5:27 AM EDT 8:26 PM EDT
Moon 6:37 AM EDT (3/11) 6:59 PM EDT (3/11)
Length of Visible Light 12h 40m
Length of Day
11h 41m
Waning Crescent, 0% of the Moon is Illuminated
Mar 11
Waning Crescent
Mar 11
New
Mar 19
First Quarter
Mar 27
Full
Apr 3
Last Quarter

Hourly Weather History & Observations

Time (EDT) Temp. Windchill Dew Point Humidity Pressure Visibility Wind Dir Wind Speed Gust Speed Precip Events Conditions
12:00 AM 44.6 °F 40.7 °F 23.0 °F 43% 30.14 in 9.0 mi South 6.9 mph - N/A   Overcast
1:00 AM 44.6 °F 40.2 °F 23.0 °F 43% 30.13 in 9.0 mi SSW 8.1 mph - N/A   Overcast
2:00 AM 41 °F - 23 °F 36% 30.12 in 10 mi SE 4.6 mph - -   Overcast
2:00 AM 41.0 °F 38.0 °F 23.0 °F 49% 30.12 in 9.0 mi ESE 4.6 mph - N/A   Overcast
3:00 AM 42.8 °F 41.1 °F 24.8 °F 49% 30.09 in 9.0 mi SSE 3.5 mph - N/A   Scattered Clouds
4:00 AM 37.4 °F - 26.6 °F 65% 30.08 in 9.0 mi Variable 2.3 mph - N/A   Mostly Cloudy
5:00 AM 36 °F - 28 °F 65% 30.10 in 10 mi SSW 2.3 mph - -  
5:00 AM 35.6 °F - 28.4 °F 75% 30.10 in 9.0 mi South 2.3 mph - N/A   Mostly Cloudy
7:00 AM 33.8 °F 29.6 °F 28.4 °F 81% 30.12 in 9.0 mi ESE 4.6 mph - N/A   Overcast
8:00 AM 34 °F - 28 °F 70% 30.10 in 10 mi NNE 2.3 mph - -  
8:00 AM 33.8 °F 30.8 °F 28.4 °F 81% 30.10 in 9.0 mi ENE 3.5 mph - N/A   Partly Cloudy
9:00 AM 41.0 °F 38.0 °F 28.4 °F 61% 30.09 in 9.0 mi ESE 4.6 mph - N/A   Partly Cloudy
10:00 AM 44.6 °F 43.1 °F 26.6 °F 49% 30.09 in 9.0 mi West 3.5 mph - N/A   Mostly Cloudy
11:00 AM 48 °F - 26 °F 29% 30.08 in 10 mi West 1.2 mph - -  
11:00 AM 48.2 °F - 26.6 °F 43% 30.07 in 9.0 mi Calm Calm - N/A   Scattered Clouds
12:00 PM 51.8 °F - 24.8 °F 35% 30.05 in 9.0 mi SSW 6.9 mph - N/A   Clear
1:00 PM 50.0 °F - 24.8 °F 37% 30.05 in 9.0 mi SW 8.1 mph - N/A   Mostly Cloudy
2:00 PM 50 °F - 26 °F 27% 30.04 in 10 mi SW 4.6 mph - -  
3:00 PM 51.8 °F - 24.8 °F 35% 30.01 in 9.0 mi SW 4.6 mph - N/A   Overcast
4:00 PM 55.4 °F - 23.0 °F 29% 30.00 in 9.0 mi SSW 6.9 mph - N/A   Mostly Cloudy
5:00 PM 52 °F - 23 °F 20% 29.99 in 10 mi SW 5.8 mph - -   Overcast
5:00 PM 51.8 °F - 23.0 °F 33% 29.99 in 9.0 mi SW 5.8 mph - N/A   Overcast
6:00 PM 51.8 °F - 23.0 °F 33% 29.98 in 9.0 mi South 5.8 mph - N/A   Clear
7:00 PM 48.2 °F - 24.8 °F 40% 29.96 in 9.0 mi SE 4.6 mph - N/A   Scattered Clouds
8:00 PM 50 °F - 22 °F 21% 29.97 in 10 mi South 4.6 mph - -   Overcast
8:00 PM 50.0 °F - 21.2 °F 32% 29.97 in 9.0 mi South 4.6 mph - N/A   Overcast
9:00 PM 48.2 °F - 23.0 °F 37% 29.96 in 9.0 mi SE 9.2 mph - N/A   Overcast
10:00 PM 50.0 °F - 21.2 °F 32% 29.94 in 9.0 mi South 4.6 mph - N/A   Mostly Cloudy
11:00 PM 49 °F - 20 °F 19% 29.94 in 10 mi South 6.9 mph - -   Overcast
11:00 PM 48.2 °F - 19.4 °F 32% 29.94 in 9.0 mi South 8.1 mph - N/A   Overcast